Regional Weather Roundup
Issued by NWS Northern Indiana

Home | Current Version | Previous Version | Text Only | Print | Product List | Glossary Off
Versions: 1 2 3 4 5 6 7 8 9 10 11 12 13 14 15 16 17 18 19 20 21 22 23 24 25 26 27 28 29 30 31 32 33 34 35 36 37 38 39 40 41 42 43 44 45 46 47 48 49 50

000
ASUS43 KIWX 301500
RWRIWX

KIWX WEATHER ROUNDUP
NATIONAL WEATHER SERVICE NORTHERN INDIANA
1100 AM EDT WED JUL 30 2014

NOTE: "FAIR" INDICATES FEW OR NO CLOUDS BELOW 12,000 FEET WITH NO
SIGNIFICANT WEATHER AND/OR OBSTRUCTIONS TO VISIBILITY.

* THESE STATIONS ARE NOT UNDER NWS QUALITY CONTROL. THEY ALSO MAY NOT
  REPORT WEATHER SUCH AS PRECIPITATION OR FOG.

INZ001>027-301600-
NORTHERN INDIANA

CITY           SKY/WX    TMP DP  RH WIND       PRES   REMARKS
GARY*          MOSUNNY   72  57  60 NW6       30.05S
VALPARAISO     MOSUNNY   69  58  67 NW5       30.06R
KNOX*          MOSUNNY   66  58  73 CALM      30.04S
SOUTH BEND     PTSUNNY   69  61  75 VRB7      30.05S
ELKHART*       CLOUDY    64  63  94 W6        30.05R
GOSHEN         CLOUDY    67  59  75 W6        30.04R
MONTICELLO*    PTSUNNY   68  60  75 NW6       30.05S
WARSAW*        CLOUDY    64  59  82 NW3       30.05S
ANGOLA*        SUNNY     66  57  72 NW6       30.03S
FORT WAYNE     PTSUNNY   69  58  67 VRB6      30.05S
PERU/GRISSOM   PTSUNNY   66  65  99 W6        30.06S

$$
INZ028>050-301600-
CENTRAL INDIANA

CITY           SKY/WX    TMP DP  RH WIND       PRES   REMARKS
LAFAYETTE      CLOUDY    67  62  84 W5        30.06S
KOKOMO*        MOSUNNY   66  59  77 NW7       30.06S
MUNCIE*        MOSUNNY   68  60  75 NW5       30.06R
INDIANAPOLIS   MOSUNNY   70  60  70 W8        30.07S

$$
MIZ043>046-050>051-056>058-064>065-071>073-077>080-301600-
SOUTHWEST LOWER MICHIGAN

CITY           SKY/WX    TMP DP  RH WIND       PRES   REMARKS
BATTLE CREEK   MOSUNNY   67  58  72 W6        30.02F
BENTON HARBOR  SUNNY     66  58  75 W6        30.03S
COLDWATER*     MOSUNNY   68  60  75 W3        30.03R
HILLSDALE*     MOSUNNY   68  58  71 W3        30.03R
HOLLAND        PTSUNNY   67  59  75 VRB3      30.03R
GRAND RAPIDS   PTSUNNY   66  59  78 CALM      30.02S
KALAMAZOO      SUNNY     69  58  67 W8        30.03R
STURGIS*       MOSUNNY   68  59  73 NW8       30.03R
THREE RIVERS*  FAIR      71  60  68 W3        30.03S

$$
OHZ001>008-015>018-024>025-301600-
NORTHWEST OHIO

CITY           SKY/WX    TMP DP  RH WIND       PRES   REMARKS
DEFIANCE       MOSUNNY   68  58  70 CALM      30.03S
FINDLAY        PTSUNNY   69  60  73 VRB3      30.03S
TOLEDO EXPRESS MOSUNNY   69  56  62 VRB3      30.02S
TOLEDO METCALF MOSUNNY   70  56  61 W6        30.03S
LIMA           PTSUNNY   69  61  75 W8        30.04R

$$
&&



USA.gov is the U.S. government's official web portal to all federal, state and local government web resources and services.